sat.trackr.live / text

‹ back to catalog

STARLINK-30412

NORAD 57854 · 2023-141Q

PAYLOAD ACTIVE UNKNOWN

§ Identity

Operator
Country
US
Launch date
2023-09-12
Launch site
AFWTR
Launch vehicle
Mass (kg)
RCS (m²)

Purposes: comms

External: N2YO · Heavens-Above · Gunter

§ Orbital elements

Epoch: 2026-05-25T02:53:51.107424Z

Period
94.11 min
Inclination
53.1615°
Eccentricity
0.0001146
Mean motion
15.30187133 rev/d
Perigee alt
474.5 km
Apogee alt
476.0 km
Semi-major
6,853.4 km
B*
3.3542e-5
RAAN
288.8442°
Arg perigee
105.5410°
Mean anomaly
254.5718°
Rev number
15,203

§ Raw data

STARLINK-304121 57854U 23141Q   26145.12073041  .00000634  00000+0  33542-4 0  99992 57854  53.1615 288.8442 0001146 105.5410 254.5718 15.30187133152031

JSON: /api/v1/satellites/57854 · /tle

For live sub-satellite position, see the globe view (requires WebGL).

§ Visibility from observer

Set your observer location to see the next 7 days of passes ≥ 10°. The values pass through the URL so the page stays shareable.

No JS? Fill the form by hand. The geolocation button needs JavaScript.